Showing default

COSMOS 2460 (GLONASS), 36402

Orbit data source: Space-Track

COSMOS 2460 (GLONASS), 36402 is a Commonwealth of Independent States-origin payload satellite in MEO that was launched on Mon, 01 Mar 2010 UTC via a PROTON-M/DM-2 launch vehicle from the Tyuratam Missile And Space Complex (TTMTR). Payload-class satellites include a variety of spacecraft equipped with specific instruments for various scientific and technological missions. These include communications satellites like Starlink; space stations such as the ISS; scientific satellites like the Hubble; Earth observation satellites from companies like Planet Labs, Umbra, and HawkEye 360; GPS; miniature CubeSats for education and research; and military/defense satellites.

Loading next visibility...
Identifier
36402, 2010-007C
Orbit
MEO
Country
Flag of CISCIS
Related business
Manufacturer
Resehetnev ISS
Mission
Operational Defense Navigation
Bus & Motor
URAGAN, Unknown motor
Mass
1,450 kg wet, ~1,200 kg dry
Launch date (UTC)
2010-03-01 (16 years ago)
Launch vehicle
PROTON-M/DM-2
Launch site
Tyuratam Missile And Space Complex (TTMTR)
Object type
Payload
Rocket body
Debris
Shape & HBR
Cyl + 1 Ant + 2 Pan, 3.9 m
Radar Cross Section
8.467 m², Large (>1 m²)

Expand to show TLE details & history
Last TLE update: 2 days ago

TLE from 2 days ago
0 COSMOS 2460 (GLONASS)
1 36402U 10007C   26032.31225016 -.00000064  00000-0  00000-0 0  9997
2 36402  65.4993 319.0659 0001797 329.3142 216.7476  2.13105975123837
Epoch: 2026-02-01T07:29Z
TLE epoch observation values (Epoch: 2026-02-01T07:29:38.413Z)
Latitude
-5.54795°
Longitude
-102.34557°
Altitude
19,134.738 km
Speed
3.952 km/s
True Right ascension
09h 26m 21s
True Declination
-5° 32' 19"
Sunlit
Object was in daylight at epoch
Visualization orbit readout
Latitude
Unknown
Longitude
Unknown
Altitude
Unknown
Speed
Unknown
Apparent Right ascension
Unknown
Apparent Declination
Unknown
Sunlit
N/A
Visualization observer readout
Local Sidereal Time
13:02:01
Azimuth
Unknown
Elevation
Unknown
Doppler factor
Unknown
Orbital elements
Apogee altitude
19,133.752 km
Perigee altitude
19,124.584 km
Semi-major axis
25,507.305 km
Eccentricity
0.00018
Inclination
65.4993°
RAAN
319.0659°
Arg. of periapsis
329.3142°
True anomaly
216.73528°
Mean anomaly
216.7476°
Eccentric anomaly
216.74144°
Mean motion
0.53278 °/min
Orbital period
675.7 mins
BSTAR
0
Loading maneuver chart data...
Computing Atmospheric mass density...
Loading historical data...
Loading historical data...
Loading historical data...
Loading historical data...
Loading historical data...
Loading historical data...
Loading historical data...

Documentation

Showing up to 5 results
|